When you browse on this site, cookies collect data to enhance your experience and personalize the content and advertising you see.
Visit our Privacy Policy to learn more. By continuing to use the site, you agree to this use of cookies and data.
  • în România
  • Lista ţărilor
  • Pe 7 zile
  • Temperatura apei
  • Meteo pe hartă
  • Widget-uri
  • user-avatar
    Intrare

    Meteo pe oră la Tibissa

    Astăzi, 5 Iunie, Vineri

    Timp Temperatura Precipitaţii Vânt Presiune Umiditate
    00:00 +20°C° 0.3 mm 3 m/s 680 mmHg 58%
    01:00 +20°C° 0.3 mm 2 m/s 680 mmHg 62%
    02:00 +19°C° 0.7 mm 2 m/s 679 mmHg 65%
    03:00 +18°C° 0.7 mm 2 m/s 679 mmHg 68%
    04:00 +18°C° 0.7 mm 2 m/s 679 mmHg 71%
    05:00 +17°C° 0 mm 2 m/s 679 mmHg 72%
    06:00 +17°C° 0 mm 3 m/s 679 mmHg 73%
    07:00 +17°C° 0 mm 4 m/s 679 mmHg 73%
    08:00 +17°C° 0 mm 5 m/s 680 mmHg 65%
    09:00 +20°C° 0 mm 7 m/s 681 mmHg 57%
    10:00 +21°C° 0 mm 9 m/s 682 mmHg 48%
    11:00 +22°C° 0 mm 9 m/s 682 mmHg 44%
    12:00 +23°C° 0 mm 9 m/s 682 mmHg 39%
    13:00 +24°C° 0 mm 8 m/s 682 mmHg 34%
    14:00 +24°C° 0 mm 8 m/s 683 mmHg 34%
    15:00 +24°C° 0 mm 8 m/s 683 mmHg 34%
    16:00 +24°C° 0 mm 8 m/s 683 mmHg 34%
    17:00 +23°C° 0 mm 8 m/s 683 mmHg 36%
    18:00 +22°C° 0 mm 7 m/s 683 mmHg 38%
    19:00 +21°C° 0 mm 6 m/s 683 mmHg 40%
    20:00 +20°C° 0 mm 5 m/s 684 mmHg 44%
    21:00 +19°C° 0 mm 4 m/s 684 mmHg 48%
    22:00 +18°C° 0 mm 3 m/s 684 mmHg 52%
    23:00 +18°C° 0 mm 2 m/s 684 mmHg 55%

    Mâine, 6 Iunie, Sâmbătă

    Timp Temperatura Precipitaţii Vânt Presiune Umiditate
    00:00 +18°C° 0 mm 2 m/s 684 mmHg 57%
    01:00 +18°C° 0 mm 1 m/s 684 mmHg 59%
    02:00 +18°C° 0 mm 1 m/s 684 mmHg 59%
    03:00 +18°C° 0 mm 1 m/s 684 mmHg 59%
    04:00 +16°C° 0 mm 2 m/s 684 mmHg 59%
    05:00 +17°C° 0 mm 2 m/s 684 mmHg 56%
    06:00 +18°C° 0 mm 2 m/s 684 mmHg 53%
    07:00 +18°C° 0 mm 2 m/s 685 mmHg 49%
    08:00 +20°C° 0 mm 2 m/s 685 mmHg 44%
    09:00 +21°C° 0 mm 2 m/s 686 mmHg 38%
    10:00 +22°C° 0 mm 3 m/s 686 mmHg 33%
    11:00 +25°C° 0 mm 3 m/s 686 mmHg 31%
    12:00 +26°C° 0 mm 3 m/s 686 mmHg 28%
    13:00 +27°C° 0 mm 3 m/s 686 mmHg 26%
    14:00 +28°C° 0 mm 4 m/s 686 mmHg 24%
    15:00 +28°C° 0 mm 4 m/s 686 mmHg 23%
    16:00 +29°C° 0 mm 5 m/s 686 mmHg 22%
    17:00 +29°C° 0 mm 4 m/s 685 mmHg 25%
    18:00 +28°C° 0 mm 4 m/s 685 mmHg 27%
    19:00 +27°C° 0 mm 3 m/s 685 mmHg 30%
    20:00 +27°C° 0 mm 3 m/s 685 mmHg 33%
    21:00 +26°C° 0 mm 2 m/s 685 mmHg 37%
    22:00 +25°C° 0 mm 1 m/s 685 mmHg 40%
    23:00 +25°C° 0 mm 2 m/s 685 mmHg 39%

    Poimâine, 7 Iunie, Duminică

    Timp Temperatura Precipitaţii Vânt Presiune Umiditate
    00:00 +24°C° 0 mm 2 m/s 684 mmHg 39%
    01:00 +24°C° 0 mm 2 m/s 684 mmHg 39%
    02:00 +24°C° 0 mm 2 m/s 684 mmHg 39%
    03:00 +24°C° 0 mm 2 m/s 683 mmHg 39%
    04:00 +24°C° 0 mm 2 m/s 683 mmHg 39%
    05:00 +24°C° 0 mm 3 m/s 683 mmHg 38%
    06:00 +25°C° 0 mm 3 m/s 683 mmHg 37%
    07:00 +25°C° 0 mm 3 m/s 684 mmHg 36%
    08:00 +26°C° 0 mm 5 m/s 684 mmHg 33%
    09:00 +28°C° 0 mm 6 m/s 684 mmHg 30%
    10:00 +29°C° 0 mm 7 m/s 684 mmHg 27%
    11:00 +31°C° 0 mm 8 m/s 684 mmHg 25%
    12:00 +32°C° 0 mm 9 m/s 684 mmHg 24%
    13:00 +33°C° 0 mm 11 m/s 684 mmHg 22%
    14:00 +34°C° 0 mm 10 m/s 683 mmHg 21%
    15:00 +34°C° 0 mm 10 m/s 683 mmHg 20%
    16:00 +36°C° 0 mm 10 m/s 683 mmHg 20%
    17:00 +33°C° 0.1 mm 8 m/s 682 mmHg 26%
    18:00 +30°C° 0.1 mm 7 m/s 682 mmHg 32%
    19:00 +28°C° 0.1 mm 6 m/s 682 mmHg 38%
    20:00 +25°C° 0.2 mm 5 m/s 682 mmHg 46%
    21:00 +22°C° 0.2 mm 5 m/s 682 mmHg 54%
    22:00 +20°C° 0.2 mm 4 m/s 682 mmHg 62%
    23:00 +19°C° 0.1 mm 4 m/s 682 mmHg 63%

    8 Iunie, Luni

    Timp Temperatura Precipitaţii Vânt Presiune Umiditate
    00:00 +19°C° 0.1 mm 4 m/s 682 mmHg 64%
    01:00 +18°C° 0.1 mm 3 m/s 682 mmHg 65%
    02:00 +18°C° 0.1 mm 3 m/s 682 mmHg 66%
    03:00 +18°C° 0.1 mm 2 m/s 682 mmHg 67%
    04:00 +18°C° 0.1 mm 2 m/s 681 mmHg 67%
    05:00 +18°C° 0 mm 2 m/s 682 mmHg 64%
    06:00 +20°C° 0 mm 1 m/s 682 mmHg 60%
    07:00 +21°C° 0 mm 1 m/s 682 mmHg 56%
    08:00 +22°C° 0 mm 1 m/s 682 mmHg 51%
    09:00 +24°C° 0 mm 1 m/s 683 mmHg 45%
    10:00 +26°C° 0 mm 1 m/s 683 mmHg 39%
    11:00 +27°C° 0 mm 1 m/s 683 mmHg 35%
    12:00 +28°C° 0 mm 2 m/s 684 mmHg 30%
    13:00 +30°C° 0 mm 2 m/s 684 mmHg 25%
    14:00 +30°C° 0 mm 3 m/s 683 mmHg 25%
    15:00 +32°C° 0 mm 4 m/s 683 mmHg 24%
    16:00 +32°C° 0 mm 5 m/s 683 mmHg 23%
    17:00 +29°C° 0.1 mm 5 m/s 683 mmHg 30%
    18:00 +28°C° 0.1 mm 6 m/s 683 mmHg 36%
    19:00 +26°C° 0.1 mm 6 m/s 683 mmHg 43%
    20:00 +23°C° 0.3 mm 5 m/s 683 mmHg 53%
    21:00 +21°C° 0.3 mm 5 m/s 684 mmHg 63%
    22:00 +19°C° 0.3 mm 4 m/s 684 mmHg 72%
    23:00 +18°C° 0.1 mm 4 m/s 684 mmHg 74%

    9 Iunie, Marţi

    Timp Temperatura Precipitaţii Vânt Presiune Umiditate
    00:00 +18°C° 0.1 mm 3 m/s 684 mmHg 76%
    01:00 +18°C° 0.1 mm 3 m/s 684 mmHg 77%
    02:00 +18°C° 0 mm 3 m/s 684 mmHg 77%
    03:00 +18°C° 0 mm 2 m/s 683 mmHg 76%
    04:00 +17°C° 0 mm 2 m/s 683 mmHg 76%
    05:00 +18°C° 0 mm 2 m/s 684 mmHg 73%
    06:00 +18°C° 0 mm 2 m/s 684 mmHg 70%
    07:00 +18°C° 0 mm 2 m/s 684 mmHg 67%
    08:00 +21°C° 0 mm 1 m/s 685 mmHg 62%
    09:00 +22°C° 0 mm 1 m/s 685 mmHg 57%
    10:00 +23°C° 0 mm 1 m/s 685 mmHg 51%
    11:00 +24°C° 0 mm 2 m/s 686 mmHg 45%
    12:00 +26°C° 0 mm 2 m/s 686 mmHg 40%
    13:00 +27°C° 0 mm 2 m/s 686 mmHg 34%
    14:00 +28°C° 0 mm 2 m/s 686 mmHg 33%
    15:00 +28°C° 0 mm 2 m/s 686 mmHg 31%
    16:00 +28°C° 0 mm 2 m/s 686 mmHg 30%
    17:00 +28°C° 0 mm 3 m/s 686 mmHg 33%
    18:00 +27°C° 0 mm 3 m/s 686 mmHg 36%
    19:00 +27°C° 0 mm 3 m/s 686 mmHg 39%
    20:00 +25°C° 0 mm 4 m/s 686 mmHg 47%
    21:00 +23°C° 0 mm 4 m/s 687 mmHg 55%
    22:00 +21°C° 0 mm 4 m/s 687 mmHg 63%
    23:00 +20°C° 0 mm 3 m/s 687 mmHg 64%

    10 Iunie, Miercuri

    Timp Temperatura Precipitaţii Vânt Presiune Umiditate
    00:00 +20°C° 0 mm 3 m/s 687 mmHg 65%
    01:00 +19°C° 0 mm 2 m/s 687 mmHg 66%
    02:00 +19°C° 0 mm 2 m/s 687 mmHg 67%
    03:00 +18°C° 0 mm 2 m/s 686 mmHg 68%
    04:00 +18°C° 0 mm 2 m/s 686 mmHg 69%
    05:00 +19°C° 0 mm 1 m/s 686 mmHg 67%
    06:00 +20°C° 0 mm 1 m/s 686 mmHg 65%
    07:00 +20°C° 0 mm 1 m/s 687 mmHg 63%
    08:00 +21°C° 0 mm 2 m/s 687 mmHg 59%
    09:00 +23°C° 0 mm 2 m/s 687 mmHg 54%
    10:00 +25°C° 0 mm 2 m/s 688 mmHg 49%
    11:00 +26°C° 0 mm 2 m/s 688 mmHg 44%
    12:00 +27°C° 0 mm 2 m/s 688 mmHg 39%
    13:00 +29°C° 0 mm 2 m/s 688 mmHg 34%
    14:00 +28°C° 0.2 mm 3 m/s 687 mmHg 36%
    15:00 +28°C° 0.2 mm 4 m/s 687 mmHg 38%
    16:00 +28°C° 0.2 mm 5 m/s 687 mmHg 40%
    17:00 +26°C° 0.7 mm 4 m/s 686 mmHg 46%
    18:00 +25°C° 0.7 mm 4 m/s 686 mmHg 52%
    19:00 +23°C° 0.7 mm 4 m/s 686 mmHg 57%
    20:00 +22°C° 0 mm 3 m/s 686 mmHg 60%
    21:00 +22°C° 0 mm 3 m/s 687 mmHg 62%
    22:00 +22°C° 0 mm 3 m/s 687 mmHg 65%
    23:00 +21°C° 0 mm 3 m/s 687 mmHg 65%
    Arată mai mult